Regional Weather Roundup
Issued by NWS Newport/Morehead, NC

Current Version | Previous Version | Graphics & Text | Print | Product List | Glossary Off
Versions: 1 2 3 4 5 6 7 8 9 10 11 12 13 14 15 16 17 18 19 20 21 22 23 24 25 26 27 28 29 30 31 32 33 34 35 36 37 38 39 40 41 42 43 44 45 46 47 48 49 50

000
ASUS42 KMHX 050012
RWRMHX
WEATHER ROUNDUP FOR EASTERN NORTH CAROLINA
NATIONAL WEATHER SERVICE NEWPORT/MOREHEAD CITY NC
700 PM EST WED MAR 04 2015

NOTE: "FAIR" INDICATES FEW OR NO CLOUDS BELOW 12,000 FEET
WITH NO SIGNIFICANT WEATHER AND/OR OBSTRUCTIONS TO VISIBILITY

NCZ015>017-031-032-045>047-102-103-050100-
NORTH COAST

CITY           SKY/WX    TMP DP  RH WIND       PRES   REMARKS
EDENTON        PTCLDY    65  59  80 S10       29.87S
ELIZABETH CITY MOCLDY    67  61  81 S10       29.87S
KITTY HAWK     MOCLDY    62  60  95 S7        29.89R
MANTEO         MOCLDY    55  54  94 S14       29.90S

$$

NCZ045>047-081-094-103-104-050100-
CENTRAL COAST

CITY           SKY/WX    TMP DP  RH WIND       PRES   REMARKS
FRISCO         MOCLDY    56  56 100 SW12G20   29.98R FOG
SWANQUARTER      N/A     54 N/A N/A S17       29.88S

$$

NCZ095-097-098-100-101-050100-
SOUTHERN COAST

CITY           SKY/WX    TMP DP  RH WIND       PRES   REMARKS
BEAUFORT       CLOUDY    58  58 100 SW16      29.98S
CEDAR ISLAND     N/A     63 N/A N/A S17       30.00S
JACKSONVILLE   PTCLDY    69  60  73 SW10G23   29.94S
PINEY ISLAND     N/A    N/A N/A N/A MISG      29.96S
WILMINGTON     PTCLDY    67  63  87 SW21G31   29.97S


$$

NCZ011>013-027>030-043-044-078>080-089-090>093-098-050100-
COASTAL PLAIN

CITY           SKY/WX    TMP DP  RH WIND       PRES   REMARKS
AHOSKIE        CLEAR     69  58  67 S5        29.85S
CLINTON        PTCLDY    73  62  68 S5        29.91S
ELIZABETHTOWN  PTCLDY    71  60  68 S7        29.93R
GOLDSBORO      PTCLDY    72  69  91 SW5       29.87S
GREENVILLE     PTCLDY    72  61  68 SW13      29.90S
HAVELOCK       MOCLDY    65  60  84 SW21G29   29.96S
KENANSVILLE    PTCLDY    71  60  68 S3        29.92F
KINSTON        PTCLDY    72  63  73 S13G20    29.90F
NEW BERN       PTCLDY    69  58  67 S12       29.93S
RICHLANDS      PTCLDY    70  57  64 S16G25    29.94S
ROCKY MOUNT    PTCLDY    72  59  63 S14       29.85S
WASHINGTON     PTCLDY    73  63  71 S7        29.89S
WHITEVILLE     PTCLDY    69  61  74 S7        29.95R

$$

AMZ130-135-150-152-154-156-158-170-250-252-270-ANZ085-086-088-633-658-670-050100-
MARINE OBSERVATIONS

STATION/POSITION TIME  TEMP    WIND        PRES    WAVE   SWELL
                       AIR SEA DIR/SP/G            HT/PER HT/PER
                 (UTC) (F)     (DEG/KT/KT) (MB)    (FT/S) (FT/S)
CHESAPEAKE LIGHT NOT AVBL
64 E VA BEACH    2350   57 53  210/ 19/ 25 1011.7    5/ 6   2/11
DUCK             2300   63 37  190/ 16/ 21 1010.5
2 E DUCK         2311      37                N/A     3/ 8   2/11
10 NE DUCK       2322      40                N/A     4/ 8   2/11
OREGON INLET     2300   50 47  200/ 16/ 19 1013.3
HATTERAS CG      2300   56 46  220/  8/ 12 1015.1
CAPE LOOKOUT     0000   61     210/ 15/ 19 1015.1
BEAUFORT LAB     2300   58 46  210/ 11/ 15 1014.0
27 SE WRIGHTSVLE NOT AVBL
5 SE WRIGHTSVLE  NOT AVBL
225 S CAPE HAT   2350   73 74  210/ 19/ 21 1021.0    5/10   3/10
41 SE CHARLESTON 2350   71 69  200/ 17/ 21 1015.8    6/ 6   3/10

$$


USA.gov is the U.S. government's official web portal to all federal, state and local government web resources and services.